    Observer details:
    246 Klet Observatory-KLENOT.  Observers M. Tichy, J. Ticha, M. Honkova.
        Measurer M. Tichy.  1.06-m f/2.7 reflector + 2048x2048 CCD.
    703 Catalina Sky Survey.  Observer R. A. Kowalski.  Measurers B. Gray, D.
        Rankin, F. C. Shelly.  0.68-m Schmidt + 10K CCD.
    A71 Stixendorf.  Observers M. Jaeger, E. Prosperi, S. Prosperi.  Measurer M.
        Jaeger.  0.3-m f/4.0 reflector + CCD.
    A77 Observatoire Chante-Perdrix, Dauban.  Observer F. Kugel.  0.4-m f/2.8
        reflector + CCD.
    C10 Maisoncelles.  Observer J.-F. Soulier.  0.30-m f/3.8 Newtonian reflector +
        CCD.
    F51 Pan-STARRS 1, Haleakala.  Observers J. Bulger, K. Chambers, T. Lowe, A.
        Schultz, I. Smith.  Measurers S. Chastel, M. Huber, Y. Ramanjooloo, R.
        Wainscoat, R. Weryk.  1.8-m Ritchey-Chretien + CCD.
    F52 Pan-STARRS 2, Haleakala.  Observers J. Bulger, K. Chambers, T. Dukes, T.
        Lowe, A. Schultz, I. Smith.  Measurers S. Chastel, M. Huber, Y.
        Ramanjooloo, R. Wainscoat, R. Weryk, K. Chambers, T. de Boer, J. Fairlamb,
        H. Gao, C.-C. Lin, E. Magnier.  1.8-m Ritchey-Chretien + CCD.
    G02 KYSUCE Observatory, Kysucke Nove Mesto.  Observer M. Urbanik.
    G40 Slooh.com Canary Islands Observatory.  Observers B. Lutkenhoner, N. Paul.
        0.5-m f/6.8 Corrected Dall-Kirkham + CCD.
    G96 Mt. Lemmon Survey.  Observer D. Rankin.  Measurers E. J. Christensen, G.
        A. Farneth, D. C. Fuls, A. R. Gibbs, A. D. Grauer, H. Groeller, R. A.
        Kowalski, S. M. Larson, G. J. Leonard, T. A. Pruyne, D. Rankin, R. L.
        Seaman, F. C. Shelly, K. W. Wierzchos.  1.5-m reflector + 10K CCD.
    H06 iTelescope Observatory, Mayhill.  Observers H. Sato, K. Yoshimoto.  0.51-m
        f/6.8 astrograph + CCD + f/4.5 focal reducer, 0.50-m f/6.8 reflector + CCD
        + f/4.5 focal reducer.
    K83 Beppe Forti Astronomical Observatory, Montelupo.  Observers M. Tombelli,
        A. Mazzanti, M. Lombardo, M. Iozzi, A. Squilloni, M. Calamandrei.
        Measurers M. Tombelli, F. Bernardi.
    L01 Visnjan Observatory, Tican.  Observers V. Dobos, E. Pettarin, D. Pujagic.
        Measurer D. Pujagic.  1.0-m f/2.9 reflector + CCD.
    L27 29PREMOTE Observatory, Dauban.  Observer J.-F. Soulier.  0.25-m f/3.5
        Newtonian reflector + CCD.
    P87 Hirao Observatory, Yamaguchi.  Observer K. Yoshimoto.  0.20-m f/8.0
        Ritchey-Chretien + CCD + f/5.4 focal reducer.
    T05 ATLAS-HKO, Haleakala.  Observers L. Denneau, J. Tonry, H. Weiland.
        Measurers L. Denneau, J. Tonry, H. Weiland, A. Fitzsimmons, J. Robinson,
        N. Erasmus.  0.5-m reflector + CCD.
    T08 ATLAS-MLO, Mauna Loa.  Observers L. Denneau, J. Tonry, H. Weiland.
        Measurers L. Denneau, J. Tonry, H. Weiland, A. Fitzsimmons, J. Robinson,
        N. Erasmus.  0.5-m reflector + CCD.
    
    Orbital elements:
        P/2021 R5 (Rankin)                                                          
    Epoch 2022 Jan. 21.0 TT = JDT 2459600.5                                         
    T 2022 Jan.  9.97761 TT                                 Rudenko                 
    q   3.3257695            (2000.0)            P               Q                  
    n   0.09374491     Peri.  166.93060     +0.89035656     -0.44672396             
    a   4.7992229      Node   219.97941     +0.40444691     +0.86464469             
    e   0.3070192      Incl.    7.85106     +0.20901651     +0.22984182             
    P  10.5                                                                         
    From 66 observations 2021 June 22-Sept. 11, mean residual 0".4.                 
                                                                                    
        P/2021 R5 (Rankin)                                                          
    Epoch 2032 July 27.0 TT = JDT 2463440.5                                         
    T 2032 July 16.31365 TT                                 Rudenko                 
    q   3.3248763            (2000.0)            P               Q                  
    n   0.09376101     Peri.  167.29473     +0.88738368     -0.45259728             
    a   4.7986733      Node   219.99388     +0.41014033     +0.86194778             
    e   0.3071259      Incl.    7.85022     +0.21055907     +0.22847697             
    P  10.5                                                                         
    From 66 observations 2021 June 22-Sept. 11, mean residual 0".4.                 
                                                                                    
        P/2021 R5 (Rankin)                                                          
    Epoch 2021 July 5.0 TT = JDT 2459400.5                                          
    T 2022 Jan.  9.55990 TT                                 Rudenko                 
    q   3.3259815            (2000.0)            P               Q                  
    n   0.09355352     Peri.  166.83814     +0.89091244     -0.44561626             
    a   4.8057660      Node   220.00033     +0.40335464     +0.86512511             
    e   0.3079186      Incl.    7.84674     +0.20875839     +0.23018404             
    P  10.5                                                                         
    From 66 observations 2021 June 22-Sept. 11, mean residual 0".4.                 
                                                                                    
    Ephemeris:
    Date    TT    R. A. (2000) Decl.     Delta      r    Elong.  Phase   m1    m2
    2021 08 12    00 40 06.0 +11 15 53   2.7291  3.4167   125.3    14.0  19.5
    ...
    2021 08 27    00 38 32.9 +11 06 34   2.5633  3.3999   140.0    11.0  19.4
    ...
    2021 09 04    00 36 14.4 +10 49 00   2.4923  3.3916   148.2     9.0  19.3
    ...
    2021 09 10    00 33 55.2 +10 30 12   2.4486  3.3857   154.5     7.3  19.2
    2021 09 11    00 33 29.5 +10 26 38   2.4422  3.3848   155.6     7.1  19.2
    2021 09 12    00 33 03.1 +10 22 56   2.4360  3.3838   156.7     6.8  19.2
    ...
    2021 09 18    00 30 12.8 +09 58 21   2.4044  3.3782   163.0     5.0  19.2
    ...
    2021 09 26    00 26 02.3 +09 20 03   2.3774  3.3712   170.9     2.7  19.2
    ...
    2021 10 11    00 17 59.8 +07 57 43   2.3756  3.3594   168.3     3.4  19.1
    
    M. P. C. Staff               (C) Copyright 2021 MPC           M.P.E.C. 2021-R257
    


    Read MPEC 2021-R256 Read MPEC 2021-R258


    MPEC number:

    Enter an MPEC number in one of the following forms:

    • 1997-B01 (the full form)
    • J97B01 (the packed version of the full form)
    • B01 (the abbreviated form)